www.pogodaiklimat.ru

АРХИВ ПОГОДЫ в Сан-Антонио

Время (UTC), дата Ветер
(напр.,м/с)
 
Видим.   Явления Облачность Т
(С)
Тd
(С)
f
(%)
Тe
(С)
Тes
(С)
Комфортность

P
(гПа)

Po
(гПа)
Тmin
(С)
Tmax
(С)
R
(мм)
SD
(см)
03:16 17.12 СЗ  10 км  дымка  10/10 120 м  +7.2  +6.1  93  +5  +5      987.8         
03:51 17.12 штиль  10 км  дымка  10/10 180 м  +7.8  +6.7  93  +7  +7    1016.5  987.8         
04:51 17.12 В  13 км    10/10 0 м  +7.0  +7.0  100  +5  +5    1016.1  987.5         
05:35 17.12 С  14 км    8/8 180 м  +7.8  +6.7  93  +6  +6      987.8         
05:51 17.12 штиль  13 км    10/10 420 м  +7.8  +6.7  93  +7  +7    1016.3  987.8      3.0   
06:51 17.12 СВ  8 км  дымка  8/8 300 м  +7.8  +6.7  93  +6  +6    1016.5  987.8         
07:11 17.12 В  6 км  дымка  10/10 240 м  +7.8  +6.7  93  +5  +5      988.1         
07:51 17.12 штиль  3 км  дымка  8/8 120 м  +7.2  +7.2  100  +6  +6    1016.5  987.8         
08:05 17.12 В  2 км  дымка  10/10 60 м  +7.8  +7.2  96  +6  +6      987.8         
08:51 17.12 штиль  2 км  дымка  10/10 90 м  +8.0  +7.0  93  +7  +7    1016.5  987.8         
09:14 17.12 штиль  3 км  дымка  10/10 90 м  +7.8  +7.2  96  +7  +7      987.8         
09:51 17.12 штиль  3 км  дымка  10/10 60 м  +7.8  +7.8  100  +7  +7    1016.9  988.1         
10:51 17.12 штиль  4 км  дымка  10/10 90 м  +8.3  +7.8  97  +7  +7    1016.6  987.8         
11:41 17.12 ЮВ  6 км  дымка  10/10 90 м  +8.3  +7.8  97  +7  +7      988.1         
11:51 17.12 штиль  8 км  дымка  10/10 120 м  +9.0  +8.0  93  +8  +8    1016.8  988.1  +7.2       
12:51 17.12 штиль  13 км    10/10 120 м  +8.3  +7.8  97  +7  +7    1016.4  987.8         
13:51 17.12 Ю  6 км  дымка  10/10 90 м  +8.3  +7.8  97  +5  +5    1017.9  989.1         
14:04 17.12 ЮВ  3 км  дымка  10/10 90 м  +8.3  +7.8  97  +6  +6      989.5         
14:09 17.12 ЮВ  2 км  дымка  10/10 90 м  +8.0  +8.0  100  +5  +5      989.5         
14:24 17.12 Ю  3 км  дымка  10/10 60 м  +8.3  +7.8  97  +6  +6      989.8         
14:51 17.12 Ю  5 км  дымка  10/10 90 м  +8.3  +7.8  97  +6  +6    1018.7  990.1         
15:21 17.12 ЮЗ  2 км  дымка  10/10 90 м  +8.3  +7.8  97  +6  +6      990.5         
15:51 17.12 ЮЗ  3 км  дымка  10/10 60 м  +8.3  +7.8  97  +5  +5    1020.0  991.1         
16:51 17.12 З  3 км  слабая морось, дымка  10/10 90 м  +9.0  +8.0  93  +6  +6    1019.9  991.1         
17:24 17.12 З  5 км  дымка  10/10 120 м  +9.4  +8.3  93  +6  +6      990.8         
17:51 17.12 З  6 км  дымка  10/10 120 м  +9.0  +8.0  93  +6  +6    1018.9  990.1  +8.3  +9.4     
18:08 17.12 З   8 км  дымка  10/10 150 м  +10.0  +8.9  93  +8  +8      989.8         
18:51 17.12 штиль  11 км    10/10 180 м  +10.6  +8.3  86  +10  +10    1017.2  988.5         
19:51 17.12 штиль  16 км    10/5 210 м
[верхняя] 
+11.7  +8.9  83  +11  +15    1016.6  988.1         
20:51 17.12 ЮВ  16 км    10/2 360 м
[средняя верхняя] 
+13.0  +9.0  77  +12  +14    1016.1  987.8         
21:51 17.12 Ю  16 км    10/0 7500 м
[верхняя] 
+13.3  +9.4  77  +12  +15    1015.9  987.5         
22:51 17.12 ЮВ  13 км    10/2 450 м
[верхняя] 
+12.0  +9.0  82  +10  +11    1016.3  987.8         
23:12 17.12 ЮВ  10 км  дымка  10/8 270 м
[верхняя] 
+11.1  +8.9  86  +9  +9      987.8         
23:51 17.12 ЮВ  10 км  дымка  10/8 270 м
[верхняя] 
+11.0  +9.0  87  +9  +9    1016.8  988.1  +9.4       
00:51 18.12 Ю  8 км  дымка  10/10 150 м  +10.6  +8.9  89  +9  +9    1017.7  989.1         
01:22 18.12 Ю  6 км  дымка  10/10 120 м  +10.0  +8.9  93  +8  +8      989.5         
01:51 18.12 штиль  5 км  дымка  10/10 120 м  +10.0  +8.9  93  +9  +9    1018.4  989.8         
02:13 18.12 Ю  4 км  дымка  10/10 90 м  +10.0  +8.9  93  +8  +8      990.1         
02:41 18.12 ЮЗ  3 км  дымка  10/10 60 м  +9.0  +9.0  100  +7  +7      990.5         
02:51 18.12 Ю  400 м  дымка  10/10 60 м  +9.4  +8.9  97  +7  +7    1019.0  990.5         
03:51 18.12 штиль  400 м  дымка  10/10 60 м  +9.4  +8.9  97  +8  +8    1018.7  990.1         
04:51 18.12 ЮВ  400 м  слабая морось, туман  ?/?  +9.4  +8.9  97  +7  +7    1019.5  990.8         
05:37 18.12 штиль  2 км  слабая морось, дымка  10/10 60 м  +9.4  +8.9  97  +8  +8      990.5         
05:51 18.12 штиль  2 км  слабая морось, дымка  10/10 90 м  +9.4  +8.3  93  +9  +9    1019.0  990.5  +9.4  +11.1     
06:51 18.12 штиль  2 км  слабая морось, дымка  10/10 60 м  +9.4  +9.4  100  +8  +8    1019.0  990.5         
07:32 18.12 штиль  400 м  слабая морось, туман  ?/?  +9.4  +9.4  100  +8  +8      990.5         
07:51 18.12 штиль  400 м  слабая морось, туман  ?/?  +9.4  +8.9  97  +8  +8      990.5         
08:51 18.12 С  400 м  слабая морось, туман  10/10 60 м  +9.4  +8.9  97  +8  +8    1018.9  990.5         

 

Местоположение метеостанции San Antonio International Airport: широта 29.5328 долгота -98.4636 высота над уровнем моря 246 м.

В архиве по умолчанию представлена погода в Сан-Антонио за последние 1-2 суток. Обновление информации о фактической погоде в базе происходит ежечасно! Архивные данные за месяц целиком и за предыдущие месяцы Вы можете получить, выбрав интересующий диапазон дат из раскрывающегося списка и нажав кнопку "Ввод!".

Внимание! Архив погоды МЕТАР в базе сайта в настоящее время начинается c 1 января 2013 г. Нет смысла пытаться выбрать более раннюю дату.

Внимание! Время в таблицах - всемирное. Для получения местного времени необходимо прибавить поправку, которая в Сан-Антонио равна -6 ч.

Ветер - указаны скорость ветра в м/с и направление, откуда дует ветер: С - северный, СВ - северо-восточный, В - восточный, ЮВ - юго-восточный, Ю - южный, ЮЗ - юго-западный, З - западный, СЗ - северо-западный.
Видимость - горизонтальная дальность видимости в метрах или километрах. При видимости от 1 до 10 км при отсутствии осадков обычно наблюдается дымка, при ухудшении видимости до 1 км и менее - туман. В сухую погоду видимость может ухудшаться дымом, пылью или мглою.
Атмосферные явления - указаны явления, наблюдавшиеся в указанный момент времени.
Облачность - указаны через наклонную черту верхняя и нижняя облачность в баллах и высота нижней границы облаков в метрах. Внимание: облачность, как и прочие метеорологические величины в США измеряются автоматическими метеостанциями. Указанные значения в баллах носят условный характер и показывают процент времени, в течение которого, в среднем, лазерный луч высотомера отражался от облаков обратно.
T - Температура воздуха - температура, измеренная на высоте 2 м над землей.
Td - Температура точки росы - температура, при понижении до которой содержащийся в воздухе водяной пар достигнет насыщения.
f - Относительная влажность воздуха - влажноcть воздуха, измеренная на высоте 2 м над землей.
Te - Эффективная температура - температура, которую ощущает одетый по сезону человек в тени. Характеристика душности погоды. При расчете учитывается влияние влажности воздуха и скорости ветра на теплоощущения человека.
Tes - Эффективная температура на солнце - температура, которую ощущает человек, с поправкой на солнечный нагрев. Характеристика знойности погоды. Зависит от высоты солнца над горизонтом, облачности и скорости ветра. Ночью, в пасмурную погоду, а также при ветре 12 м/с и более поправка равна нулю.
P - Атмосферное давление - приведенное к уровню моря атмосферное давление.
Po - Атмосферное давление - измеренное на уровне метеостанции атмосферное давление.
Tmin - Минимальная температура - минимум температуры воздуха на высоте 2 м над землей.
Tmax - Максимальная температура - максимум температуры воздуха на высоте 2 м над землей.
R - Количество осадков - Количество выпавших осадков за 3 или 6 часов, мм.
SD - Снежный покров - Высота снежного покрова, см.